Location: Bouchavesnes-Bergen
(49.9859°N, 2.9203°E)
Time: 03:48:11
(UTC+00:00)

Cosmos 2322 - Pass Details

Date: 09 March 2021
Orbit: 841 x 853 km, 71.0° (Epoch: 11 April)

Event Time Altitude Azimuth Distance (km) Brightness Sun altitude
Rises 03:27:38 0° 331° (NNW) 3,426 6.9 -26.9°
Reaches altitude 10° 03:30:07 10° 333° (NNW) 2,485 6.1 -26.5°
Maximum altitude 03:35:50 76° 60° (ENE) 877 3.8 -25.7°
Drops below altitude 10° 03:41:29 10° 146° (SE) 2,461 6.2 -24.9°
Sets 03:43:56 0° 148° (SSE) 3,391 6.9 -24.5°
